Wind_Speed
12 12 11 10 10 9 9 9 8 7 8 7 6 6 6 8 8 8 9 9 8 8 8 7 7 7 7 7 7 8 7 7 7 7 6 6 6 6 6 6 6 6 6 6
14 13 11 11 12 11 11 10 9 8 8 8 7 8 7 8 8 8 8 8 8 8 8 6 6 6 7 7 6 7 7 6 7 6 6 6 6 6 7 7 7 7 7 7
15 13 13 13 13 13 12 11 10 10 10 10 9 8 8 8 7 7 8 8 8 8 8 7 7 6 6 7 6 6 7 6 6 6 6 7 7 7 7 7 6 7 8 8
16 14 14 14 14 14 13 12 12 11 10 10 10 9 9 8 8 7 7 8 9 9 9 7 7 7 6 6 6 6 7 6 7 8 8 7 8 8 8 8 8 8 9 9
17 15 15 15 14 14 13 13 13 12 11 11 10 10 8 9 8 8 8 8 9 9 8 7 7 7 6 5 6 6 6 7 8 8 8 8 9 9 9 10 10 10 10 10
17 16 15 15 15 15 14 14 13 13 12 11 10 10 8 8 9 10 10 9 9 8 8 7 7 8 7 6 6 6 6 7 7 7 8 9 9 10 10 11 11 11 11 12
18 17 16 16 16 16 15 15 14 14 13 12 12 12 10 10 10 11 10 10 9 8 8 8 7 8 7 6 6 6 7 8 8 8 9 9 10 11 12 12 12 12 12 13
18 18 17 17 17 17 16 15 16 15 14 13 13 13 11 10 11 11 10 10 9 9 9 9 8 8 7 7 6 6 7 7 8 9 10 10 11 12 12 13 13 13 13 14
19 18 17 18 17 17 16 16 16 17 16 16 15 14 12 12 12 12 11 11 10 10 10 10 9 8 8 8 8 7 8 8 8 9 10 11 13 13 14 14 14 14 15 16
20 19 19 19 19 18 19 18 18 19 19 18 16 15 13 13 13 14 13 12 12 12 13 12 11 9 9 9 9 8 9 9 9 10 12 13 14 15 15 15 15 16 17 17
20 20 20 21 21 21 20 20 20 21 21 20 18 15 14 14 15 15 14 14 13 13 13 13 12 11 10 10 10 9 10 10 11 12 13 14 15 16 16 17 17 18 18 19
21 21 20 22 22 21 21 21 21 21 21 21 19 16 15 15 15 14 14 14 14 14 13 12 12 11 11 11 11 11 11 13 13 14 15 16 16 16 17 17 18 18 19 19
22 22 22 22 22 21 22 22 22 22 21 20 19 17 15 15 14 13 14 14 14 14 12 12 12 12 12 12 12 13 13 14 14 15 16 17 17 17 18 19 19 20 20 20
23 23 22 22 22 22 22 22 22 22 22 20 19 17 16 15 14 14 14 14 14 14 13 13 13 12 12 13 13 14 14 15 15 16 17 18 18 18 19 20 20 21 22 22
24 24 23 22 22 23 22 22 22 22 22 21 19 18 16 15 15 15 14 14 14 13 13 13 13 12 13 13 14 15 15 16 16 17 18 19 20 20 20 21 22 23 23 23
24 24 23 22 22 23 23 22 23 23 23 22 20 18 17 16 15 15 14 14 13 13 13 14 14 14 15 15 15 16 17 17 18 18 19 20 20 21 21 22 24 24 24 24
26 25 24 24 23 23 23 21 21 22 22 21 19 17 17 16 15 14 14 15 14 14 14 15 15 15 16 17 18 18 18 17 18 19 19 20 21 22 22 23 24 24 24 25
26 25 26 26 25 26 22 21 21 21 21 20 19 18 17 16 16 15 15 15 15 15 15 16 17 16 16 17 17 18 18 18 19 19 20 20 21 22 23 23 24 24 25 25
25 25 26 26 26 26 24 22 23 22 21 19 18 18 18 18 17 17 16 16 16 16 16 17 17 17 17 18 19 19 19 19 19 19 20 21 22 22 23 24 24 25 26 26
26 26 26 26 27 27 25 23 23 22 21 19 18 18 18 18 17 17 17 17 17 17 18 18 18 18 18 19 19 19 19 19 19 20 21 21 22 23 23 24 25 26 27 27
25 26 27 26 27 26 24 23 23 23 22 21 20 19 19 19 18 18 19 19 18 18 18 18 18 18 19 19 20 20 20 20 20 21 21 22 23 24 25 26 26 27 28 28
26 27 27 27 26 25 24 23 23 24 23 22 22 22 22 21 20 20 20 20 19 19 19 19 20 20 20 21 21 22 21 21 21 22 23 24 24 25 26 27 27 28 28 29
26 26 27 28 27 26 25 25 24 24 24 23 23 23 23 22 21 21 21 21 20 21 20 20 21 22 22 22 22 22 23 23 23 24 24 25 26 26 27 28 28 29 30 30
26 28 28 28 28 28 27 27 26 26 25 25 24 23 23 22 22 22 21 21 21 20 20 21 22 22 23 23 23 24 24 24 24 25 25 26 27 27 28 29 30 30 30 30
26 28 28 28 28 27 27 27 27 27 27 26 25 24 23 23 22 22 22 22 22 22 21 21 22 23 23 24 24 25 25 25 25 26 26 26 26 28 28 29 30 30 30 30
27 28 28 28 28 28 27 28 28 28 27 27 26 25 25 24 23 23 23 24 23 22 22 21 22 23 24 24 25 24 25 25 25 25 26 27 28 28 28 29 30 30 30 30
Wind_Direction
234 235 239 240 242 246 248 259 271 281 294 305 314 317 325 328 331 339 349 352 350 349 352 360 7 11 8 5 8 13 13 15 20 22 19 11 1 351 350 352 351 346 344 339
234 235 235 238 243 247 249 256 266 273 287 301 307 315 320 323 322 324 331 337 336 338 342 348 352 358 4 359 357 359 359 4 9 10 4 353 343 345 345 344 343 340 338 336
235 236 235 239 243 244 250 257 264 268 279 293 299 307 310 314 313 315 322 326 327 327 333 338 342 346 355 355 347 343 341 343 351 352 348 345 340 343 344 346 342 338 337 338
234 233 235 237 240 246 251 258 265 272 279 292 301 306 306 303 303 306 315 323 325 322 324 330 333 335 342 340 338 334 331 331 334 335 339 339 337 337 343 342 339 333 330 329
232 231 234 237 242 247 254 259 264 270 276 285 293 301 302 299 302 303 305 312 317 319 319 315 317 323 328 329 326 325 325 326 326 330 332 334 335 338 336 333 327 321 316 317
231 231 234 236 242 248 253 257 260 266 272 277 285 291 296 297 300 300 300 304 306 308 311 310 306 309 314 316 312 311 316 319 324 327 335 334 334 333 328 324 322 320 318 315
231 233 235 235 239 247 252 255 258 262 266 275 279 286 294 296 300 300 298 298 298 297 298 299 301 303 308 309 309 308 307 310 313 318 325 327 325 324 322 319 318 316 313 311
234 235 237 239 243 247 250 253 258 263 269 273 274 284 292 295 298 301 298 291 292 290 289 289 291 299 303 303 303 306 304 305 307 315 322 326 326 326 327 324 318 313 311 310
234 237 239 242 244 248 249 250 254 262 267 272 272 278 283 289 295 301 300 292 289 292 292 285 286 291 299 298 298 299 303 301 301 311 319 323 323 321 321 320 317 315 312 310
238 239 240 242 243 244 247 251 254 259 266 270 272 275 283 284 290 298 298 292 289 292 291 285 282 284 294 297 295 296 304 303 300 306 314 319 319 316 315 314 314 313 310 310
240 241 241 244 244 244 246 251 255 259 263 269 274 277 284 287 292 290 291 291 288 289 288 283 279 281 286 290 292 294 300 305 306 308 310 312 316 315 314 316 314 312 309 308
244 245 245 246 248 247 250 254 255 257 261 267 274 279 280 284 288 289 289 292 289 287 286 283 283 278 280 285 287 289 300 305 307 307 306 310 311 315 315 314 314 312 311 308
245 247 247 245 246 249 250 252 253 257 260 264 271 278 279 285 282 286 288 291 290 287 288 288 288 283 280 279 284 289 296 301 304 304 305 307 309 310 313 314 314 315 314 312
246 247 247 247 246 248 250 251 252 254 258 263 268 273 277 280 279 284 287 290 290 290 287 291 291 285 281 281 285 292 294 297 302 305 308 311 310 310 312 313 314 314 314 312
246 246 247 248 247 248 251 252 255 256 259 264 266 270 274 274 276 281 284 287 288 288 288 291 291 284 284 286 287 290 294 298 302 304 308 310 312 309 311 312 312 311 310 309
247 249 247 247 247 249 250 252 254 255 257 261 265 269 270 272 273 279 284 282 281 282 286 288 286 288 288 288 287 287 290 296 300 305 308 309 310 310 310 311 311 312 311 311
246 248 248 249 248 249 250 253 255 258 259 259 262 268 270 268 272 278 283 283 281 278 280 287 289 288 290 289 289 289 288 296 302 306 309 309 310 310 310 311 312 312 311 311
244 246 247 249 250 250 253 254 256 257 259 259 259 262 265 268 268 274 279 281 280 280 284 288 292 290 289 292 295 296 296 298 301 304 307 310 311 311 311 312 313 313 312 312
242 243 245 246 249 253 254 258 257 258 260 261 261 262 265 268 270 272 276 277 279 281 283 286 287 288 287 290 293 293 293 294 298 301 304 308 311 312 313 314 314 313 313 313
241 241 242 245 250 253 256 257 258 259 261 261 262 262 263 268 271 274 276 275 275 277 281 283 285 285 287 289 290 290 290 292 296 300 303 306 309 311 313 314 314 314 313 312
240 240 242 246 250 253 254 256 257 256 258 259 260 263 265 268 269 273 274 274 275 277 279 281 285 285 285 286 287 288 289 292 297 300 302 304 306 308 310 312 313 313 312 312
243 243 242 245 248 250 253 256 256 256 256 255 258 261 264 267 270 273 273 273 275 277 278 281 284 285 286 286 287 284 286 292 296 298 301 303 304 306 307 309 310 310 311 311
242 243 244 245 247 249 251 254 255 256 254 255 257 260 263 266 269 272 272 272 274 277 278 279 282 285 287 287 287 285 287 292 295 298 300 301 303 305 306 307 308 310 311 311
244 244 245 246 246 248 250 252 254 254 255 255 258 260 263 266 267 269 270 272 274 276 277 278 280 283 286 288 287 286 289 292 295 296 297 300 302 304 305 307 308 309 310 312
245 245 247 247 247 247 248 251 252 252 252 254 257 258 261 264 264 266 267 271 274 274 275 276 278 281 284 287 287 286 289 293 295 295 296 298 301 302 304 306 308 308 310 311
246 246 248 249 249 248 249 252 254 254 255 256 255 255 258 260 261 262 264 268 272 273 274 276 278 279 282 285 289 291 293 293 294 295 298 300 303 304 306 308 308 309 310 312
Height
5887 5889 5890 5891 5892 5893 5893 5894 5894 5894 5893 5893 5892 5892 5892 5891 5890 5889 5888 5887 5886 5884 5883 5881 5880 5879 5878 5877 5875 5874 5873 5871 5870 5869 5868 5867 5866 5864 5863 5862 5862 5861 5860 5859
5886 5887 5889 5889 5890 5891 5892 5893 5893 5893 5892 5892 5891 5891 5891 5890 5889 5888 5887 5886 5885 5884 5883 5881 5880 5878 5877 5876 5875 5874 5873 5872 5870 5869 5868 5866 5865 5863 5863 5862 5861 5860 5859 5858
5884 5886 5887 5888 5888 5889 5890 5891 5891 5891 5891 5890 5890 5890 5890 5889 5888 5887 5886 5885 5884 5883 5882 5881 5879 5878 5877 5876 5875 5874 5873 5872 5870 5869 5867 5866 5865 5863 5862 5861 5859 5859 5858 5857
5881 5883 5884 5885 5886 5887 5888 5889 5889 5889 5889 5888 5889 5888 5888 5887 5887 5886 5885 5884 5883 5882 5881 5880 5879 5877 5876 5875 5874 5873 5872 5871 5869 5868 5866 5865 5864 5863 5862 5860 5859 5858 5857 5855
5878 5880 5882 5883 5884 5885 5886 5887 5887 5887 5887 5887 5886 5886 5888 5886 5885 5885 5884 5883 5882 5881 5880 5879 5878 5876 5875 5874 5873 5872 5871 5870 5869 5867 5866 5864 5863 5862 5861 5859 5858 5857 5855 5854
5875 5877 5879 5881 5882 5882 5884 5884 5884 5884 5885 5885 5885 5885 5886 5885 5884 5883 5882 5881 5880 5879 5878 5877 5876 5875 5874 5872 5871 5871 5869 5869 5867 5866 5865 5864 5862 5861 5859 5858 5856 5855 5853 5852
5872 5874 5876 5878 5879 5880 5881 5882 5882 5882 5882 5883 5883 5883 5884 5883 5882 5881 5880 5879 5878 5877 5876 5875 5875 5874 5872 5871 5870 5869 5868 5867 5866 5865 5863 5862 5860 5859 5857 5855 5854 5852 5851 5849
5869 5872 5873 5875 5876 5877 5878 5879 5880 5880 5880 5881 5881 5881 5883 5881 5880 5879 5877 5876 5876 5874 5874 5873 5872 5872 5871 5870 5868 5867 5866 5865 5864 5863 5861 5860 5858 5857 5855 5853 5851 5850 5848 5846
5866 5869 5870 5871 5873 5874 5874 5875 5877 5877 5877 5878 5878 5879 5880 5879 5877 5876 5875 5874 5873 5872 5871 5871 5870 5869 5868 5867 5866 5865 5864 5863 5862 5861 5859 5857 5856 5854 5852 5850 5849 5847 5845 5843
5862 5865 5867 5868 5869 5870 5871 5872 5873 5873 5874 5874 5875 5876 5877 5876 5875 5874 5872 5872 5871 5869 5868 5867 5867 5866 5866 5865 5864 5863 5862 5860 5859 5858 5856 5854 5853 5851 5849 5847 5846 5843 5841 5839
5857 5860 5863 5864 5865 5866 5868 5869 5869 5869 5870 5871 5871 5875 5873 5872 5871 5870 5870 5868 5868 5866 5865 5864 5863 5863 5863 5862 5862 5861 5860 5858 5857 5855 5854 5852 5850 5848 5846 5844 5842 5840 5837 5835
5853 5855 5857 5859 5861 5862 5863 5864 5865 5866 5867 5867 5868 5872 5870 5869 5868 5867 5866 5865 5864 5863 5862 5861 5860 5859 5859 5859 5859 5858 5857 5856 5854 5853 5851 5849 5847 5845 5843 5841 5838 5836 5833 5831
5848 5850 5852 5854 5858 5858 5858 5859 5861 5862 5863 5863 5864 5868 5866 5865 5864 5863 5863 5862 5861 5860 5859 5858 5857 5856 5856 5856 5855 5855 5854 5853 5851 5849 5848 5846 5844 5842 5839 5837 5835 5832 5830 5827
5843 5845 5848 5850 5851 5853 5854 5855 5856 5857 5858 5859 5860 5861 5862 5861 5861 5860 5859 5858 5857 5856 5856 5855 5854 5853 5853 5853 5852 5852 5851 5849 5848 5846 5844 5843 5840 5838 5836 5833 5831 5828 5826 5823
5838 5840 5842 5844 5846 5848 5849 5851 5852 5853 5853 5855 5856 5857 5857 5857 5857 5856 5855 5854 5854 5853 5852 5852 5851 5850 5849 5849 5849 5848 5847 5845 5844 5842 5841 5839 5836 5834 5832 5829 5827 5824 5821 5818
5832 5834 5836 5838 5840 5842 5844 5846 5847 5848 5849 5850 5851 5852 5853 5852 5852 5852 5851 5850 5850 5850 5849 5848 5848 5847 5846 5846 5845 5844 5843 5842 5840 5838 5836 5834 5832 5830 5827 5825 5822 5819 5816 5813
5826 5829 5831 5833 5835 5836 5839 5841 5842 5843 5844 5845 5846 5848 5848 5848 5848 5847 5847 5846 5846 5846 5845 5845 5844 5843 5842 5842 5841 5839 5838 5837 5836 5834 5832 5830 5828 5825 5823 5820 5817 5814 5811 5808
5821 5823 5825 5827 5830 5831 5836 5836 5837 5838 5839 5840 5841 5843 5843 5844 5844 5843 5843 5842 5842 5842 5841 5840 5839 5839 5838 5837 5837 5835 5834 5833 5832 5830 5828 5825 5823 5820 5818 5815 5812 5809 5806 5802
5815 5817 5819 5821 5823 5825 5829 5830 5831 5832 5834 5835 5836 5837 5838 5839 5839 5839 5839 5838 5838 5837 5837 5836 5835 5835 5834 5833 5832 5831 5830 5829 5827 5825 5823 5821 5818 5816 5813 5810 5807 5804 5800 5797
5809 5811 5814 5815 5817 5819 5823 5825 5825 5828 5828 5830 5831 5832 5833 5834 5835 5836 5835 5834 5833 5833 5832 5832 5831 5830 5830 5829 5828 5827 5825 5824 5822 5821 5819 5816 5814 5811 5808 5805 5802 5798 5795 5791
5802 5805 5807 5809 5811 5813 5816 5818 5820 5822 5824 5825 5826 5827 5828 5829 5830 5830 5830 5829 5828 5828 5827 5827 5826 5826 5825 5824 5823 5822 5820 5818 5817 5815 5813 5811 5808 5806 5803 5799 5796 5792 5789 5785
5796 5799 5801 5803 5805 5810 5810 5812 5814 5815 5816 5818 5820 5821 5822 5823 5824 5824 5824 5824 5823 5823 5822 5822 5821 5820 5819 5818 5817 5816 5814 5813 5811 5810 5808 5805 5802 5800 5796 5793 5790 5786 5782 5779
5790 5793 5795 5798 5801 5802 5804 5805 5807 5808 5810 5811 5813 5815 5816 5817 5818 5818 5818 5818 5818 5817 5817 5816 5816 5815 5814 5813 5812 5810 5809 5807 5806 5804 5801 5799 5796 5793 5790 5786 5783 5780 5776 5772
5783 5785 5788 5790 5793 5795 5797 5798 5800 5801 5803 5805 5806 5808 5809 5810 5811 5812 5812 5812 5812 5811 5811 5811 5810 5809 5808 5807 5806 5804 5803 5801 5799 5797 5795 5792 5789 5786 5783 5780 5776 5773 5769 5765
5776 5778 5780 5783 5786 5788 5790 5791 5793 5794 5796 5798 5799 5801 5802 5803 5804 5805 5805 5805 5805 5805 5805 5804 5804 5803 5802 5801 5799 5798 5796 5794 5793 5791 5789 5786 5783 5780 5776 5772 5769 5765 5762 5758
5769 5771 5773 5776 5778 5780 5783 5784 5785 5787 5789 5790 5792 5793 5795 5796 5797 5798 5798 5799 5799 5799 5798 5798 5797 5796 5795 5794 5793 5791 5790 5788 5786 5784 5782 5779 5776 5773 5769 5766 5762 5758 5754 5751